Visit our webpage : www.zegrzepomorskie.pl

NOTAM's

B5230/14 - GRASS RWY 07L/25R CLSD DUE TO WIP. 27 OCT 23:59 2014 UNTIL 26 MAR 23:59 2015. CREATED: 27 OCT 17:38 2014
General Information Charts AIP

Airport Name: Koszalin - Zegrze Pomorskie
ICAO Code: EPKZ (old code EPKO)
City: Koszalin PL
Elevation: 240 ft (73m);

ARP: (240ft)
N 54.042778 E 16.263611 (dd.dddddd) WGS84
N 54 02'34" E 16 15'49" (dd mm ss)
N 54 02.567 E 16 15.817 (dd mm.mmm)

25 THR (233ft)
N 54.046083 E 16.28185 (dd.dddddd) WGS84
N 54 02'45" E 16 16'54" (dd mm ss)
N 54 02.765 E 16 16.911 (dd mm.mmm)

Runway: 07/25; 2500x60m; Asphalt

Radio:
FIS: Gdansk Information: 127.150MHz
Koszalin Radio: 122.300MHz

E-mail: przemek@tu.org.pl
Phone (PL): +48503770933
Phone (PL/ENG): +48502592990

Web: www.ZegrzePomorskie.pl

There is no AVGAS. You can refuel in EPSC or EPBY.

Minimal atmospheric conditions
(cloud base / visibility)
day - aeroplanes 200 m / 2000 m
day - gliders 300 m / 2000 m
day - helicopters 200 m / 2000 m
day - baloons 300 m / 2000 m
day - powered hang-gliders 200 m / 2000 m
night - aeroplanes 500 m / 5000 m
night - gliders 500 m / 5000 m
night - helicopters 300 m / 5000 m
night - baloons 500 m / 5000 m
night - powered hang-gliders 500m / 5000m

Wind indicator - 300 m south from 25 THR.

Czapla Gora mountain and observation tower 156 m AMSL within 2800 m from ARP, 1 km south from rwy axis on 07 THR side.

Warnings:
Aviation Ambulance on site from MAY to SEP.
Damaged surface (20m) before 07 treshold signs only.

  • Plan zagospodarowania przestrzeni lotniska (PL)
  • Airspace map
  • Current AUP chart (from PATA)
  • eAIP VFR



     
  • VFR AD 4 EPKZ
  • VFR AD 4 EPKZ 3-0 Aerodrome Chart
  • VFR AD 4 EPKZ 4-0 Visual Operation Chart
  • VFR AD 4 EPKZ 5-0 Visual Operation Chart
  • VFR AD 4 EPKZ 6-0 Extract from Aeronautical Chart of Poland - ICAO 1: 500 000

  • Weather
    Metar z pełnej godziny Komunikat METAR ze strony awiacja.imgw.pl Metar G00 EPSC METAR EPSC 182000Z 22012KT 7000 -RA SCT004 BKN005 10/09 Q1002 =
    Metar z połowy godziny Komunikat METAR ze strony awiacja.imgw.pl Metar G30 EPSN METAR EPSN 182030Z 21012KT 4000 -RADZ BKN004 OVC010 09/09 Q1001 RMK 086 100 8/6=
    Metar z połowy godziny Komunikat METAR ze strony awiacja.imgw.pl Metar G30 EPNA METAR EPNA 182030Z NIL=
    Metar z połowy godziny Komunikat METAR ze strony awiacja.imgw.pl Metar G30 EPDA METAR EPDA 182030Z 21013KT 4000 -RA BR BKN007 OVC011 09/09 Q1000 RMK 091 097 8/6 =
    Metar z pełnej godziny Komunikat METAR ze strony awiacja.imgw.pl Metar G00 EPGD METAR EPGD 182000Z 23009KT 200V280 8000 -RA BKN008 08/07 Q1000 =
    Metar z pełnej godziny Komunikat METAR ze strony awiacja.imgw.pl Metar G00 EPBY METAR EPBY 182000Z 21008KT 3900 -RA BR BKN005 OVC010 09/08 Q1004 =

    METAR message map of Poland (ibcool)
    METAR message map of Europe (ibcool)
    SYNOP observations general cloud cover for Europe

    IMGW - TAF's, METAR's, thunderstorms/icing/wind map's

    IMGW Radar
    http://radareu.cz
    http://www.blitzortung.org/

    TAF from EPDA RAW(about 27nm NE from Zegrze Pomorskie)

    TAF from EPDA Translated


    Significant

    Satelite:

    Camera view from Chelmska Mountain (Koszalin)

    Camera provided by koszalin.pl


    Photo gallery



    statystyka


    przemek@tu.org.pl

    Facebook
    Kopiowanie calosci jak i poszczegolnych czesci tej strony jest lamaniem praw autorskich. Autor nie wyraza zgody na kopiowanie elementow strony i wykorzystywanie ich w celach komercyjnych jak i prywatnych bez uzgodnienia.
    Aeroklub Ziemi Koszalinskiej